User: anonymous   Login
Location: Unspecified
(0.0000°N, 0.0000°E)
Time: 10:38:52
(UTC+00:00)
Language:

RS-15 - Orbit

View from above orbital plane
View from above orbital plane
View from above satellite
View from above satellite

Ground track
Ground track

The orbit data is extracted from the following two-line orbital elements,

1 23439U 94085A   18267.24097953 -.00000043 +00000-0 -19295-4 0  9999
2 23439 064.8164 188.6386 0153985 164.0884 350.9306 11.27568392977737
Epoch (UTC): 24 September 2018 05:47:00
Eccentricity: 0.0153985
inclination: 64.8164°
perigee height: 1893 km
apogee height: 2152 km
right ascension of ascending node: 188.6386°
argument of perigee: 164.0884°
revolutions per day: 11.27568392
mean anomaly at epoch: 350.9306°
orbit number at epoch: 97773

The dashed part of the orbit path shows where the satellite is in the earth's shadow,  

DLR